Location: Unspecified
(42.9300°N, 71.1866°W)
Time: 20:52:45
(UTC-04:00)

Okean 3 - Visible Passes

Search period start: 26 July 2017 00:00
Search period end: 05 August 2017 00:00
Orbit: 576 x 604 km, 82.5° (Epoch: 26 July)

Date Brightness Start Highest point End Pass type
(mag) Time Alt. Az. Time Alt. Az. Time Alt. Az.
26 Jul 6.0 00:01:32 10° WNW 00:03:19 12° W 00:03:50 12° W visible
26 Jul 3.3 22:30:38 10° N 22:34:50 81° E 22:35:35 58° SSE visible
27 Jul 5.6 21:04:12 10° NE 21:05:19 11° ENE 21:06:26 10° E visible
27 Jul 3.6 22:38:54 10° NNW 22:43:03 66° W 22:43:55 51° SSW visible
28 Jul 5.3 21:11:08 10° NNE 21:13:45 16° ENE 21:15:42 12° E visible
28 Jul 4.3 22:47:16 10° NNW 22:51:14 42° W 22:52:15 35° SW visible
29 Jul 4.8 21:18:46 10° NNE 21:22:08 23° ENE 21:24:03 17° ESE visible
29 Jul 5.0 22:55:47 10° NNW 22:59:23 28° W 23:00:37 24° WSW visible
30 Jul 4.3 21:26:40 10° N 21:30:29 33° ENE 21:32:25 22° ESE visible
30 Jul 5.6 23:04:29 10° NW 23:07:29 19° W 23:09:00 16° WSW visible
31 Jul 3.7 21:34:41 10° N 21:38:48 50° E 21:40:50 26° SE visible
31 Jul 6.1 23:13:36 10° WNW 23:15:34 13° W 23:17:24 10° WSW visible
01 Aug 3.3 21:42:50 10° N 21:47:03 78° E 21:49:16 27° SSE visible
02 Aug 3.6 21:51:05 10° NNW 21:55:17 69° W 21:57:42 24° S visible
03 Aug 4.4 21:59:28 10° NNW 22:03:28 44° W 22:06:11 19° SSW visible
04 Aug 4.8 20:31:01 10° NNE 20:34:21 22° ENE 20:37:41 10° SE visible
04 Aug 5.1 22:07:56 10° NNW 22:11:37 30° W 22:14:42 13° SSW visible
